CAPE
0 0 0 0 0 0 0 0 0 0 0 0 0 0 0 0 0 0 0 0 0 0 0 0 15 201 545 880 1184 1189 1187 975 690 534 529 645 677 540 396 310 273 272 303 347
0 0 0 0 0 0 0 0 0 0 0 0 0 0 0 0 0 0 0 0 0 0 0 0 0 0 20 276 635 1266 1379 1326 949 761 720 867 889 873 767 607 475 408 399 460
0 0 0 0 0 0 0 0 0 0 0 0 0 0 0 0 0 0 0 0 0 0 0 0 0 0 0 0 92 476 1149 1523 1321 1091 1004 934 1021 975 986 889 839 795 580 437
0 0 0 0 0 0 0 0 0 0 0 0 0 0 0 0 0 0 0 0 0 0 0 0 0 0 0 0 0 364 1161 1528 1512 1351 1232 1133 1181 1281 1273 1312 1244 1108 897 667
0 0 0 0 0 0 0 0 0 0 0 0 0 0 0 0 0 0 0 0 0 0 0 0 0 0 0 0 0 0 631 1337 1600 1442 1478 1397 1435 1524 1554 1368 1300 1279 1070 912
0 0 0 0 0 0 0 0 0 0 0 0 0 0 0 0 0 0 0 0 0 0 0 0 0 0 0 0 0 0 0 419 1225 1398 1389 1470 1490 1476 1459 1265 1238 1249 1226 1046
0 0 0 0 0 0 0 0 0 0 0 0 0 0 0 0 0 0 0 0 0 0 0 0 0 0 0 0 0 71 144 242 691 1093 1302 1391 1421 1486 1379 1315 1250 1366 1286 1088
0 0 0 0 0 0 0 0 0 0 0 0 0 0 0 0 0 0 0 0 0 0 0 0 0 0 0 0 71 159 312 476 628 872 1145 1329 1313 1383 1458 1362 1366 1365 1383 1377
0 0 0 0 0 0 0 0 0 0 0 0 0 0 0 0 0 0 0 0 0 0 0 0 0 0 0 0 0 0 96 258 494 646 776 927 1074 1188 1370 1433 1439 1372 1294 1247
0 0 0 0 0 0 0 0 0 0 0 0 0 0 0 0 0 0 0 0 0 0 0 0 0 0 0 0 0 0 0 0 31 315 572 713 876 1012 1227 1342 1238 1224 1193 1038
0 0 0 0 0 0 0 0 0 0 0 0 0 0 0 0 0 0 0 0 0 0 0 0 0 0 0 0 0 0 0 0 0 0 132 523 717 896 942 938 1029 995 917 892
0 0 0 0 0 0 0 0 0 0 0 0 0 0 0 0 0 0 0 0 0 0 0 0 0 0 0 0 0 0 0 0 0 0 0 61 468 697 729 747 725 700 784 812
0 0 0 0 0 0 0 0 0 0 0 0 0 0 0 0 0 0 0 0 0 0 0 0 0 0 0 0 0 0 0 0 0 0 0 0 104 410 608 799 669 577 558 552
0 0 0 0 0 0 0 0 0 0 0 0 0 0 0 0 0 0 0 0 0 0 0 0 0 0 0 0 0 0 0 0 0 0 0 0 18 126 274 370 405 441 506 476
0 0 0 0 0 0 0 0 0 0 0 0 0 0 0 0 0 0 0 0 0 0 0 0 0 0 0 0 0 0 0 0 0 0 0 0 7 43 68 98 160 222 280 241
0 0 0 0 0 0 0 0 0 0 0 0 0 0 0 0 0 0 0 0 0 0 0 0 0 0 0 0 0 0 0 0 0 0 0 0 0 1 46 103 117 89 62 36
0 0 0 0 0 0 0 0 0 0 0 0 0 0 0 0 0 0 0 0 0 0 0 0 0 0 0 0 0 0 0 0 0 0 0 0 0 0 0 0 0 0 1 2
0 0 3 0 0 0 0 0 0 0 0 0 0 0 0 0 0 0 0 0 0 0 0 0 0 0 0 0 0 0 0 0 0 0 0 0 0 0 0 0 0 0 0 0
0 0 2 0 0 0 0 0 0 0 0 0 0 0 0 0 0 0 0 0 0 0 0 0 0 0 0 0 0 0 0 0 0 0 0 0 0 0 0 0 0 0 0 0
0 0 0 0 0 0 0 0 0 0 0 0 0 0 0 0 0 0 0 0 0 0 0 0 0 0 0 0 0 0 0 0 0 0 0 0 0 0 0 0 0 0 0 0
0 0 0 0 0 0 0 0 0 0 0 0 0 0 0 0 0 0 0 0 0 0 0 0 0 0 0 0 0 0 0 0 0 0 0 0 0 0 0 0 0 0 0 0
0 1 0 0 0 0 0 0 0 0 0 0 0 0 0 0 0 0 0 0 0 0 0 0 0 0 0 0 0 0 0 0 0 0 0 0 0 0 0 0 0 0 0 0
0 0 0 0 0 0 0 0 0 0 0 0 0 0 0 0 0 0 0 0 0 0 0 0 0 0 0 1 0 0 0 1 1 0 0 0 0 0 1 0 3 1 2 1
0 0 0 0 0 0 0 0 0 0 0 0 0 0 0 0 0 0 0 0 0 0 0 0 0 0 0 3 3 0 3 2 2 1 1 1 1 2 0 0 0 0 0 0
0 0 0 0 0 0 0 0 0 0 0 0 0 0 0 0 0 0 0 0 0 0 0 0 0 2 2 2 0 1 1 1 2 0 3 2 2 3 1 1 0 0 0 0
0 0 0 0 0 0 0 0 0 0 0 0 0 0 0 0 0 0 0 0 0 1 2 0 1 1 2 3 2 2 2 2 2 1 1 2 2 2 2 0 0 1 1 0
CIN
-0 -0 -0 -0 -0 -0 -0 -0 -0 -0 -0 -0 -0 -0 -0 -0 -0 -0 -0 -0 -0 -0 -0 -0 -315 -284 -337 -374 -420 -385 -403 -449 -530 -517 -501 -465 -450 -512 -550 -568 -565 -526 -472 -417
-0 -0 -0 -0 -0 -0 -0 -0 -0 -0 -0 -0 -0 -0 -0 -0 -0 -0 -0 -0 -0 -0 -0 -0 -0 -0 -278 -311 -369 -420 -435 -446 -499 -492 -476 -449 -466 -474 -479 -501 -537 -528 -479 -421
-0 -0 -0 -0 -0 -0 -0 -0 -0 -0 -0 -0 -0 -0 -0 -0 -0 -0 -0 -0 -0 -0 -0 -0 -0 -0 -0 -0 -356 -426 -467 -480 -471 -462 -456 -459 -421 -441 -460 -488 -463 -455 -452 -464
-0 -0 -0 -0 -0 -0 -0 -0 -0 -0 -0 -0 -0 -0 -0 -0 -0 -0 -0 -0 -0 -0 -0 -0 -0 -0 -0 -0 -0 -502 -466 -432 -426 -440 -444 -465 -404 -345 -414 -397 -393 -384 -394 -396
-0 -0 -0 -0 -0 -0 -0 -0 -0 -0 -0 -0 -0 -0 -0 -0 -0 -0 -0 -0 -0 -0 -0 -0 -0 -0 -0 -0 -0 -0 -528 -457 -420 -436 -408 -426 -412 -398 -352 -379 -376 -347 -364 -361
-0 -0 -0 -0 -0 -0 -0 -0 -0 -0 -0 -0 -0 -0 -0 -0 -0 -0 -0 -0 -0 -0 -0 -0 -0 -0 -0 -0 -0 -0 -0 -514 -456 -429 -404 -382 -372 -344 -320 -367 -363 -340 -305 -280
-0 -0 -0 -0 -0 -0 -0 -0 -0 -0 -0 -0 -0 -0 -0 -0 -0 -0 -0 -0 -0 -0 -0 -0 -0 -0 -0 -0 -0 -460 -455 -419 -470 -438 -412 -380 -355 -309 -326 -300 -306 -258 -262 -262
-0 -0 -0 -0 -0 -0 -0 -0 -0 -0 -0 -0 -0 -0 -0 -0 -0 -0 -0 -0 -0 -0 -0 -0 -0 -0 -0 -25 -446 -482 -448 -378 -410 -405 -367 -375 -364 -329 -304 -302 -277 -256 -240 -227
-0 -0 -0 -0 -0 -0 -0 -0 -0 -0 -0 -0 -0 -0 -0 -0 -0 -0 -0 -0 -0 -0 -0 -0 -0 -0 -0 -0 -0 -0 -365 -359 -405 -438 -423 -400 -393 -367 -329 -297 -264 -268 -257 -246
-0 -0 -0 -0 -0 -0 -0 -0 -0 -0 -0 -0 -0 -0 -0 -0 -0 -0 -0 -0 -0 -0 -0 -0 -0 -0 -0 -0 -0 -0 -0 -0 -353 -383 -399 -393 -369 -358 -336 -291 -315 -296 -274 -266
-0 -0 -0 -0 -0 -0 -0 -0 -0 -0 -0 -0 -0 -0 -0 -0 -0 -0 -0 -0 -0 -0 -0 -0 -0 -0 -0 -0 -0 -0 -0 -0 -0 -0 -372 -332 -330 -356 -320 -332 -320 -325 -313 -285
-0 -0 -0 -0 -0 -0 -0 -0 -0 -0 -0 -0 -0 -0 -0 -0 -0 -0 -0 -0 -0 -0 -0 -0 -0 -0 -0 -0 -0 -0 -0 -0 -0 -0 -0 -402 -341 -310 -321 -336 -345 -325 -312 -273
-0 -0 -0 -0 -0 -0 -0 -0 -0 -0 -0 -0 -0 -0 -0 -0 -0 -0 -0 -0 -0 -0 -0 -0 -0 -0 -0 -0 -0 -0 -0 -0 -0 -0 -0 -0 -438 -359 -294 -243 -248 -265 -270 -262
-0 -0 -7 -0 -0 -0 -0 -0 -0 -0 -0 -0 -0 -0 -0 -0 -0 -0 -0 -0 -0 -0 -0 -0 -0 -0 -0 -0 -0 -0 -0 -0 -0 -0 -0 -0 -390 -399 -331 -284 -274 -262 -247 -217
-0 -3 -0 -0 -0 -0 -0 -0 -0 -0 -0 -0 -0 -0 -0 -0 -0 -0 -0 -0 -0 -0 -0 -0 -0 -0 -0 -0 -0 -0 -0 -0 -0 -0 -0 -0 -333 -396 -388 -353 -308 -277 -249 -262
-0 -0 -23 -0 -0 -0 -0 -0 -0 -0 -0 -0 -0 -0 -0 -0 -0 -0 -0 -0 -0 -0 -0 -0 -0 -0 -0 -0 -0 -0 -0 -0 -0 -0 -0 -0 -0 -50 -302 -270 -266 -273 -278 -290
-0 -0 -0 -0 -0 -0 -0 -0 -0 -0 -0 -0 -0 -0 -0 -0 -0 -0 -0 -0 -0 -0 -0 -0 -0 -0 -0 -0 -0 -0 -0 -0 -0 -0 -0 -0 -0 -0 -0 -0 -0 -0 -0 -0
-0 -0 -1 -0 -4 -0 -0 -0 -0 -0 -0 -0 -0 -0 -0 -0 -0 -0 -0 -0 -0 -0 -0 -0 -0 -0 -0 -0 -0 -0 -0 -0 -0 -0 -0 -0 -0 -0 -0 -0 -0 -0 -0 -0
-0 -51 -0 -0 -0 -0 -0 -0 -0 -0 -0 -0 -0 -0 -0 -0 -0 -0 -0 -0 -0 -0 -0 -0 -0 -0 -0 -0 -0 -0 -0 -0 -0 -0 -0 -0 -0 -0 -0 -0 -0 -0 -0 -0
-0 -0 -0 -0 -0 -0 -0 -0 -0 -0 -0 -0 -0 -0 -0 -0 -0 -0 -0 -0 -0 -0 -0 -0 -0 -0 -0 -0 -0 -0 -0 -0 -0 -0 -0 -0 -0 -0 -0 -0 -0 -0 -0 -0
-0 -0 -2 -0 -0 -0 -0 -0 -0 -0 -0 -0 -0 -0 -0 -0 -0 -0 -0 -0 -0 -0 -0 -0 -0 -0 -0 -0 -0 -0 -0 -0 -0 -0 -0 -0 -0 -0 -0 -0 -0 -0 -0 -0
-0 -5 -0 -0 -0 -0 -0 -0 -0 -0 -0 -0 -0 -0 -0 -0 -0 -0 -0 -0 -0 -0 -0 -0 -0 -0 -0 -0 -0 -0 -0 -0 -0 -0 -0 -0 -0 -0 -0 -0 -0 -0 -0 -0
-0 -0 -0 -0 -0 -0 -0 -0 -0 -0 -0 -0 -0 -0 -0 -0 -0 -0 -0 -0 -0 -0 -0 -0 -0 -0 -0 -0 -0 -0 -0 -0 -0 -0 -0 -0 -0 -0 -0 -0 -0 -0 -0 -0
-0 -0 -0 -0 -0 -0 -0 -0 -0 -0 -0 -0 -0 -0 -0 -0 -0 -0 -0 -0 -0 -0 -0 -0 -0 -0 -0 -0 -0 -0 -0 -0 -0 -0 -0 -0 -0 -0 -0 -0 -0 -0 -0 -0
-0 -0 -0 -0 -0 -0 -0 -0 -0 -0 -0 -0 -0 -0 -0 -0 -0 -0 -0 -0 -0 -0 -0 -0 -0 -0 -0 -0 -0 -0 -0 -0 -0 -0 -0 -0 -0 -0 -0 -0 -0 -0 -0 -0
-0 -0 -0 -0 -0 -0 -0 -0 -0 -0 -0 -0 -0 -0 -0 -0 -0 -0 -0 -0 -0 -0 -0 -0 -0 -0 -0 -0 -0 -0 -0 -0 -0 -0 -0 -0 -0 -0 -0 -0 -0 -0 -0 -0
Wind_Speed
23 23 22 21 19 22 24 24 24 26 26 23 23 32 37 36 20 15 12 8 6 15 22 17 11 8 9 10 12 14 14 15 14 14 13 12 11 10 11 11 11 12 12 12
26 27 29 27 24 24 27 29 28 28 22 27 32 35 32 27 21 20 19 13 11 8 3 12 10 8 11 12 13 13 14 13 15 15 15 15 14 13 13 13 13 13 14 13
28 25 23 22 24 24 26 27 28 26 27 28 28 26 25 20 22 21 19 18 16 17 21 25 31 20 9 13 12 14 14 10 11 13 14 14 18 18 16 14 17 16 16 16
31 31 29 24 22 21 32 25 28 28 26 24 21 27 25 20 20 22 22 22 20 21 23 25 28 27 20 19 13 10 9 10 9 9 11 14 15 17 17 20 21 21 18 18
32 28 26 29 30 23 29 22 25 25 24 24 22 22 21 18 16 19 22 22 21 22 23 25 25 23 19 15 13 12 14 12 11 11 13 16 18 21 24 24 23 22 22 21
38 27 25 26 23 19 20 22 23 23 23 27 23 18 24 16 11 16 20 22 21 22 22 24 24 23 21 19 16 14 15 17 16 16 18 20 23 25 27 26 26 26 25 25
39 38 31 25 25 20 21 24 30 29 27 30 24 18 20 12 9 12 17 21 21 20 22 23 24 24 23 22 20 18 15 15 14 14 14 16 20 23 25 27 28 27 27 26
46 46 37 31 31 28 27 25 28 33 31 31 22 23 22 16 7 11 14 19 19 20 23 23 24 24 24 24 23 22 21 20 17 18 18 19 21 23 24 24 24 24 25 24
45 47 32 32 28 24 30 30 29 33 31 34 29 28 29 18 7 9 11 15 16 18 22 25 26 27 28 29 28 26 25 24 22 23 25 23 22 21 21 20 20 21 22 20
45 49 41 36 27 29 30 19 27 27 35 37 33 32 27 19 15 13 10 13 16 20 23 25 26 29 30 32 32 30 26 26 26 24 23 23 22 20 19 20 19 19 20 18
41 43 41 30 37 36 30 33 29 27 31 35 39 36 25 23 21 10 9 12 19 24 27 28 30 32 33 35 36 36 35 34 33 29 27 26 26 23 23 22 21 20 21 22
43 41 51 46 32 34 33 37 32 35 35 33 39 42 22 18 15 14 11 14 21 24 27 30 33 35 37 38 40 39 38 38 36 32 26 24 25 25 24 24 23 23 23 24
36 42 48 44 42 34 37 34 31 31 30 36 38 40 26 22 16 14 14 21 22 25 28 31 34 35 36 38 40 41 40 40 39 34 28 23 24 25 24 26 25 25 26 27
33 39 44 54 50 38 42 39 35 32 38 42 40 40 30 24 20 17 23 26 29 30 31 32 33 35 36 37 38 39 39 39 38 33 29 28 26 25 26 26 25 26 28 27
36 42 42 47 43 38 34 37 37 37 39 41 43 39 30 25 25 24 25 26 26 29 31 31 33 34 35 36 37 37 37 37 36 33 30 29 27 26 29 29 30 33 32 31
29 39 38 48 45 42 45 42 40 37 37 37 37 40 30 28 21 23 24 24 27 29 29 31 32 33 34 35 36 36 36 36 35 34 32 30 29 28 29 30 30 29 28 30
35 34 42 57 39 35 41 42 35 33 31 30 34 33 25 24 24 23 23 25 26 27 29 30 30 31 32 34 35 37 35 35 34 34 33 33 32 32 32 32 33 34 33 33
39 35 38 49 37 52 45 34 37 37 31 25 28 29 24 22 20 21 23 23 24 26 27 28 29 30 32 33 35 35 35 34 35 36 36 35 35 35 35 35 36 36 36 36
39 40 40 39 42 43 45 35 32 32 37 27 29 28 23 18 20 25 23 23 25 26 27 29 30 30 30 33 35 36 37 38 37 39 39 39 40 40 40 41 41 40 40 39
39 37 38 36 39 48 49 30 25 23 40 23 21 21 18 18 31 31 23 24 26 26 28 29 29 30 33 36 37 36 37 36 37 38 39 38 39 39 40 40 42 42 41 43
38 35 39 40 42 43 33 26 18 31 38 22 19 15 16 24 29 20 19 23 24 28 29 29 29 31 33 35 35 35 35 36 36 36 35 37 37 37 39 40 41 42 43 42
39 33 29 27 33 50 22 17 24 28 21 16 14 15 18 19 19 20 21 24 26 28 28 29 29 30 31 34 34 33 33 34 34 34 35 36 36 38 39 40 41 41 41 40
45 33 32 26 32 25 22 27 23 18 14 16 16 15 15 17 20 21 23 24 26 26 27 27 28 28 29 31 32 32 33 33 34 34 35 36 36 37 38 39 39 38 37 37
42 33 38 30 31 26 23 21 20 18 14 13 13 15 17 18 20 22 25 25 25 27 28 26 25 27 29 30 31 32 34 34 34 35 35 35 36 36 35 35 35 35 35 35
35 33 40 42 32 25 28 25 15 11 12 14 17 19 20 20 23 22 23 24 24 24 23 22 24 27 29 30 32 33 34 34 35 35 35 36 36 36 35 34 34 34 32 32
30 27 28 33 26 22 24 15 14 13 15 17 19 21 20 19 20 21 22 22 20 19 19 23 25 27 29 31 33 34 35 34 34 35 35 35 35 35 35 35 34 31 32 32
Wind_Direction
280 280 282 291 298 303 308 314 316 317 324 338 340 324 303 292 328 331 326 321 337 204 216 208 209 231 247 243 239 229 246 245 245 244 248 256 244 253 269 271 276 282 283 283
273 275 281 285 290 295 299 303 306 313 324 327 322 319 308 323 334 340 340 342 336 337 317 216 219 238 243 246 234 234 226 245 240 246 242 265 268 269 271 278 275 276 282 281
266 278 290 282 283 291 294 298 303 308 315 319 323 329 339 358 345 350 2 358 355 341 326 315 301 306 261 232 241 224 220 239 249 243 256 261 280 282 282 270 279 279 280 282
270 271 276 283 282 285 291 299 299 304 310 313 328 319 331 344 352 348 350 349 352 346 338 331 313 308 305 301 290 268 258 258 260 242 243 241 255 262 271 283 287 286 283 283
267 272 271 270 274 282 290 300 300 302 303 307 310 314 324 338 351 355 355 355 357 351 348 346 345 339 333 340 316 293 289 281 273 266 261 272 269 279 285 287 286 284 284 280
264 271 270 274 282 279 294 297 303 304 302 298 302 299 309 319 339 355 355 357 357 353 353 353 355 358 359 354 353 328 305 294 287 283 281 279 281 284 287 286 287 287 286 287
259 261 268 269 276 279 282 290 291 293 292 294 305 296 301 317 335 350 357 352 353 0 356 355 352 352 353 352 345 339 333 323 309 298 291 285 288 288 287 289 289 289 290 290
256 260 256 260 259 272 270 275 279 288 290 295 300 294 303 305 289 339 351 352 4 3 359 355 351 348 344 341 339 334 329 323 317 307 301 298 295 294 292 292 292 293 293 294
256 260 266 263 264 258 273 268 274 279 288 289 290 295 298 303 285 315 334 350 356 0 353 347 344 336 333 331 330 329 325 321 314 307 302 299 297 293 292 293 295 295 296 295
257 263 263 266 267 262 263 277 277 272 279 282 287 287 288 288 280 284 296 328 344 346 345 346 343 337 332 330 328 329 327 321 315 307 300 296 295 293 289 293 294 298 301 297
256 257 264 261 256 255 260 264 273 278 275 280 285 289 292 277 288 279 293 318 329 331 332 334 334 333 330 327 326 324 323 318 312 307 301 293 292 294 293 291 295 298 299 295
247 259 257 258 269 266 260 262 258 267 273 278 282 282 308 305 286 298 299 316 323 329 331 331 332 331 329 327 325 323 322 321 315 315 304 293 290 290 291 291 294 298 298 295
250 252 256 260 261 264 261 262 260 266 278 273 278 284 295 294 298 291 297 311 321 327 328 331 332 333 333 331 331 330 326 322 321 318 314 306 294 289 290 294 298 298 297 294
255 255 252 252 257 263 262 262 261 261 270 272 274 281 290 290 285 291 302 308 314 319 325 327 330 333 336 338 338 338 339 335 329 327 322 319 310 301 296 298 298 297 296 293
256 256 256 257 261 262 265 262 263 263 264 271 278 279 281 284 289 294 302 308 313 320 324 328 330 331 334 338 339 342 343 343 344 344 339 330 326 316 308 308 306 303 301 298
267 259 260 258 260 262 265 268 268 266 270 270 275 279 287 289 290 297 303 307 313 320 323 327 331 332 334 337 339 342 341 341 343 344 344 344 340 331 323 318 317 318 315 310
265 262 258 255 263 261 263 258 262 269 274 275 274 280 288 286 289 296 301 308 314 318 323 326 330 333 335 336 336 335 337 339 339 338 338 337 335 334 331 326 322 320 319 317
256 262 262 257 262 257 262 272 267 268 273 269 283 286 287 291 297 300 307 311 315 319 322 325 328 330 333 334 334 334 334 336 336 332 330 330 327 325 325 325 324 322 322 319
256 252 260 262 260 265 264 267 267 270 276 274 279 283 285 290 299 303 311 314 315 317 322 323 325 329 331 332 332 331 328 327 324 326 325 323 321 320 321 320 320 319 318 318
251 254 250 260 267 259 264 261 274 281 277 281 278 279 277 290 293 300 306 312 315 320 324 326 327 328 330 331 333 330 330 328 322 320 323 323 322 322 322 322 320 321 320 316
239 250 246 253 264 269 274 277 262 266 279 285 282 276 282 296 304 310 311 313 319 320 325 328 328 330 330 333 335 333 333 332 327 326 328 327 326 326 326 325 325 325 324 323
237 241 251 255 259 262 274 267 259 277 289 289 288 291 294 306 311 312 313 314 317 319 324 327 328 330 332 334 336 336 336 334 333 333 331 331 332 330 329 328 329 330 330 328
239 247 249 256 265 280 277 273 276 283 286 293 300 306 308 308 309 312 313 316 321 324 326 329 330 331 335 336 340 341 336 336 335 335 334 334 336 337 337 336 336 337 338 336
248 253 255 266 269 277 277 279 282 289 296 306 310 310 311 310 312 313 313 316 321 324 325 331 338 335 336 340 342 340 339 340 339 337 337 337 337 338 339 340 341 342 341 339
251 250 254 262 272 281 276 274 276 286 301 307 308 307 307 310 311 316 319 322 326 329 335 341 341 341 341 341 341 342 341 341 339 339 338 338 339 340 340 342 342 342 341 340
250 251 249 265 270 274 277 265 273 282 292 299 304 304 307 312 314 322 324 328 332 338 341 339 340 342 341 340 339 339 340 341 341 339 340 341 342 342 342 341 340 345 344 343